Regional Weather Roundup
Issued by NWS

Home | Current Version | Previous Version | Graphics & Text | Print | Product List | Glossary On
Versions: 1 2 3 4 5 6 7 8 9 10 11 12 13 14 15 16 17 18 19 20 21 22 23 24 25 26 27 28 29 30 31 32 33 34 35 36 37 38 39 40 41 42 43 44 45 46 47 48 49 50
000
ASUS43 KMKX 201621
RWRWI

WISCONSIN REGIONAL WEATHER ROUNDUP
NATIONAL WEATHER SERVICE MILWAUKEE/SULLIVAN WI
1100 AM CDT SAT SEP 20 2014

NOTE: "FAIR" INDICATES FEW OR NO CLOUDS BELOW 12,000 FEET WITH NO
SIGNIFICANT WEATHER AND/OR OBSTRUCTIONS TO VISIBILITY.

WIZ001-002-006>008-014>016-023>028-201700-
NORTHWEST WISCONSIN

CITY           SKY/WX    TMP DP  RH WIND       PRES   REMARKS
SUPERIOR ARPT  CLOUDY    62  55  77 NW12      29.74R
ASHLAND        CLOUDY    67  57  70 W12G21    29.71R
HAYWARD        MOSUNNY   68  55  63 VRB6      29.74R
SIREN          MOSUNNY   66  56  70 NW13      29.77S
RICE LAKE      PTSUNNY   67  56  67 W12       29.78R
LADYSMITH      PTSUNNY   68  58  72 W13       29.76R
EAU CLAIRE     CLOUDY    69  59  70 W13       29.77R
MENOMONIE      CLOUDY    67  59  74 W13       29.79R
NEW RICHMOND   MOSUNNY   68  58  68 W10       29.79S
OSCEOLA        SUNNY     69  59  70 NW8G16    29.81S
$$

WIZ003>005-009-010-017-018-201700-
NORTH CENTRAL WISCONSIN

CITY           SKY/WX    TMP DP  RH WIND       PRES   REMARKS
WOODRUFF       MOSUNNY   69  60  71 W15G21    29.69S
RHINELANDER    MOSUNNY   71  60  68 W15G24    29.69S
EAGLE RIVER    CLOUDY    68  56  65 NW17G23   29.67S
LAND O LAKES   PTSUNNY   70  58  67 W8G17     29.68R
PHILLIPS       CLOUDY    66  57  74 W7        29.72R
TOMAHAWK       PTSUNNY   70  59  68 W17       29.70S
MEDFORD        PTSUNNY   67  61  79 W15       29.73S
MERRILL        CLOUDY    70  62  75 W12G18    29.70R
$$

WIZ029-030-035-036-043>047-201700-
CENTRAL WISCONSIN

CITY           SKY/WX    TMP DP  RH WIND       PRES   REMARKS
WAUSAU         PTSUNNY   71  62  73 W18       29.70S
MOSINEE        CLOUDY    66  64  94 W13G20    29.74R
MARSHFIELD     CLOUDY    69  63  81 W15       29.75R
STEVENS POINT  CLOUDY    67  61  82 W8        29.73F
WAUPACA        CLOUDY    72  64  78 W16G23    29.73R
WAUTOMA        CLOUDY    72  64  75 W15G21    29.74S
WISC RAPIDS    CLOUDY    70  63  78 W8G18     29.75F
CAMP DOUGLAS   PTSUNNY   68  68 100 W10G17    29.75S
$$

WIZ011>013-019>022-031-037>040-048>050-201700-
NORTHEAST WISCONSIN

CITY           SKY/WX    TMP DP  RH WIND       PRES   REMARKS
ANTIGO         PTSUNNY   69  62  78 W18       29.71S
STURGEON BAY   CLOUDY    68  61  77 W15G23    29.68S
GREEN BAY      CLOUDY    71  63  75 SW14G21   29.70F
MANITOWOC      MOSUNNY   74  64  71 W15G23    29.72F
APPLETON       PTSUNNY   72  64  78 SW20G25   29.72S
CLINTONVILLE   CLOUDY    70  63  78 W15G21    29.70S
OSHKOSH        MOSUNNY   72  63  73 SW10G21   29.72S
$$

WIZ032>034-041-042-053>061-201700-
SOUTHWEST WISCONSIN

CITY           SKY/WX    TMP DP  RH WIND       PRES   REMARKS
LA CROSSE      CLOUDY    70  63  78 W7        29.78R
SPARTA         CLOUDY    68  62  79 W7        29.77R
VIROQUA        PTSUNNY   66  66  99 W16G24    29.81R
BOSCOBEL       PTSUNNY   73  64  73 W9        29.80S
PRAIRIE DU CHI PTSUNNY   71  62  71 W9        29.80R
PLATTEVILLE    FAIR      73  65  75 W12       29.83F
$$

WIZ056-057-062-063-064-067-068-201700-
SOUTH CENTRAL WISCONSIN

CITY           SKY/WX    TMP DP  RH WIND       PRES   REMARKS
BARABOO/DELLS  PTSUNNY   73  62  69 W9        29.75F
LONE ROCK      PTSUNNY   76  63  64 W10G21    29.77F
WATERTOWN      MOSUNNY   73  64  73 SW15G24   29.78F
MADISON        PTSUNNY   72  62  71 SW9G17    29.78F
MIDDLETON      FAIR      74  63  67 W12       29.78F
MONROE         PTSUNNY   70  63  78 SW14      29.83S
JANESVILLE     SUNNY     73  63  68 SW17      29.83S
$$

WIZ051-052-058>065-066-070>072-201700-
SOUTHEAST WISCONSIN

CITY           SKY/WX    TMP DP  RH WIND       PRES   REMARKS
MILWAUKEE      PTSUNNY   72  61  68 SW14      29.81F
WAUKESHA       SUNNY     70  61  73 SW12G18   29.82F
MILWAUKEE/TIMM SUNNY     72  61  68 SW12G21   29.80F
RACINE         PTSUNNY   72  61  68 SW12      29.82F
BURLINGTON     PTSUNNY   73  61  65 SW12G17   29.82F
KENOSHA        PTSUNNY   71  62  73 SW14      29.82F
FOND DU LAC    MOSUNNY   71  62  73 SW15G32   29.74F
SHEBOYGAN      MOSUNNY   74  62  66 SW17G28   29.73F
WEST BEND      MOSUNNY   70  59  68 SW13G22   29.78R
JUNEAU         MOSUNNY   69  63  81 S13G21    29.78F
$$

LSZ147-162-201700-
LAKE SUPERIOR

STATION/POSITION TIME  TEMP    WIND        PRES    WAVE
                       AIR SEA DIR/SP/G            HT/PER
                 (UTC) (F)     (DEG/KT/KT) (MB)    (FT/S)
W MID LAKE BUOY  1550   54 47  270/ 16/ 17 1002.7R   2/ 3
DEVILS ISLAND    1600   58     270/ 14/ 16 1005.1R
PORT WING        1500   61     260/ 15/ 19 1005.8R
SAXON HARBOR     1500   67     280/  7/ 10 1005.1R
$$

LMZ867-665-643>646-201700-
LAKE MICHIGAN

STATION/POSITION TIME  TEMP    WIND        PRES    WAVE
                       AIR SEA DIR/SP/G            HT/PER
                 (UTC) (F)     (DEG/KT/KT) (MB)    (FT/S)
N MID LAKE BUOY  1550   60 58  200/ 19/ 23 1004.0S   6/ 7
NORTHPORT PIER   1500   68     220/  5/ 10 1004.1S
KEWAUNEE LAKESHO 1600   72     230/ 10/ 18 1004.7F
SHEBOYGAN LAKESH 1600   65 53  210/ 12/ 14 1006.9F
PORT WASHINGTON  1500   68     230/ 11/ 17 1008.8F
ATWATER BUOY     1600   67     220/ 14/ 17 1010.1
MILWAUKEE LAKESH 1600   71     230/ 14/ 17   N/A
S MID LAKE BUOY  1550   64 63  220/ 14/ 17 1010.1S   5/ 6
KENOSHA   LAKESH 1600   71     210/ 11/ 16 1009.5F
$$

TC  - TEMPERATURE IN CELSIUS
VSB - VISIBILITY IN STATUTE MILES
WCI - WIND CHILL INDEX
HX  - HEAT INDEX




USA.gov is the U.S. government's official web portal to all federal, state and local government web resources and services.